{"data":{"norad_id":58047,"epoch":"2026-09-20T22:44:46.998816Z","epoch_age_seconds":99170,"freshness":"FRESH","line1":"1 58047U 23156V   26263.94776619 -.00012239  00000+0 -35190-3 0  9998","line2":"2 58047  53.1635 339.3826 0001430  92.4076 267.7090 15.34379193164905","mean_motion":15.34379193,"eccentricity":0.000143,"inclination_deg":53.1635,"raan_deg":339.3826,"arg_perigee_deg":92.4076,"mean_anomaly_deg":267.709,"bstar":-0.0003519,"rev_number":16490,"period_min":93.849030706975,"perigee_km":461.78683469686,"apogee_km":463.7433326928,"semimajor_km":6840.9020836948,"source":"CELESTRAK","updated_at":"2026-09-21T09:00:33.776393Z"}}